User: anonymous   Login
Location: Ahausen
(50.4985°N, 8.2722°E)
Time: 22:46:26
(UTC+00:00)
Language:

Cosmos 192 - Orbit

View from above orbital plane
View from above orbital plane
View from above satellite
View from above satellite

Ground track
Ground track

The orbit data is extracted from the following two-line orbital elements,

1 03047U 67116A   24147.92765379  .00000531  00000-0  12572-3 0  9990
2 03047  74.0133   4.7668 0008165 349.2631  10.8357 14.56544900989191
Epoch (UTC): 26 May 2024 22:15:49
Eccentricity: 0.0008165
inclination: 74.0133°
perigee height: 698 km
apogee height: 710 km
right ascension of ascending node: 4.7668°
argument of perigee: 349.2631°
revolutions per day: 14.56544900
mean anomaly at epoch: 10.8357°
orbit number at epoch: 98919

The dashed part of the orbit path shows where the satellite is in the earth's shadow,  

DLR